Location: Ellerstadt
(49.4644°N, 8.2615°E)
Time: 18:03:32
(UTC+00:00)

Vanguard 2 - All Passes

Search period start: 18 June 2021 00:00
Search period end: 28 June 2021 00:00
Orbit: 552 x 2937 km, 32.9° (Epoch: 17 June)

Date Brightness Start Highest point End Pass type
(mag) Time Alt. Az. Time Alt. Az. Time Alt. Az.
18 Jun - 15:16:31 10° S 15:22:23 14° SSE 15:27:22 10° SE daylight
18 Jun - 17:22:31 10° SW 17:31:17 23° S 17:37:33 10° ESE daylight
18 Jun - 19:32:33 10° WSW 19:39:29 23° S 19:44:26 10° SE daylight
18 Jun - 21:45:26 10° SW 21:46:35 10° SSW 21:47:40 10° SSW visible
19 Jun - 15:31:23 10° SSW 15:39:49 18° SSE 15:46:29 10° ESE daylight
19 Jun - 17:39:20 10° SW 17:48:45 26° S 17:55:17 10° ESE daylight
19 Jun - 19:50:04 10° WSW 19:56:48 22° SSW 20:01:40 10° SSE daylight
20 Jun - 15:47:13 10° SSW 15:57:17 23° SSE 16:04:50 10° ESE daylight
20 Jun - 17:56:25 10° SW 18:06:11 28° S 18:12:52 10° SE daylight
20 Jun - 20:07:45 10° WSW 20:14:05 20° SSW 20:18:43 10° SSE visible
21 Jun - 13:58:10 10° S 14:05:25 15° SSE 14:11:43 10° ESE daylight
21 Jun - 16:03:33 10° SW 16:14:44 27° SSE 16:22:49 10° ESE daylight
21 Jun - 18:13:41 10° WSW 18:23:36 29° S 18:30:18 10° SE daylight
21 Jun - 20:25:41 10° WSW 20:31:16 18° SSW 20:35:32 10° SSE visible
22 Jun - 14:12:50 10° S 14:22:47 19° SSE 14:30:56 10° ESE daylight
22 Jun - 16:20:15 10° SW 16:32:12 30° S 16:40:36 10° ESE daylight
22 Jun - 18:31:07 10° WSW 18:40:58 29° SSW 18:47:38 10° SE daylight
22 Jun - 20:43:56 10° WSW 20:48:22 15° SSW 20:51:57 10° S visible
23 Jun - 14:28:28 10° SSW 14:40:09 24° SSE 14:49:23 10° ESE daylight
23 Jun - 16:37:14 10° SW 16:49:39 33° S 16:58:13 10° ESE daylight
23 Jun - 18:48:41 10° WSW 18:58:16 28° SSW 19:04:50 10° SE daylight
23 Jun - 21:03:04 10° SW 21:05:22 11° SW 21:07:27 10° SSW visible
24 Jun - 12:40:38 10° S 12:48:05 14° SE 12:54:51 10° ESE daylight
24 Jun - 14:44:39 10° SSW 14:57:34 28° SSE 15:07:27 10° ESE daylight
24 Jun - 16:54:26 10° WSW 17:07:04 34° S 17:15:43 10° ESE daylight
24 Jun - 19:06:24 10° WSW 19:15:31 25° SSW 19:21:52 10° SSE daylight
25 Jun - 12:54:53 10° S 13:05:17 19° SSE 13:14:27 10° ESE daylight
25 Jun - 15:01:14 10° SW 15:14:59 32° SSE 15:25:18 10° ESE daylight
25 Jun - 17:11:47 10° WSW 17:24:29 35° S 17:33:07 10° SE daylight
25 Jun - 19:24:19 10° WSW 19:32:40 22° SSW 19:38:42 10° SSE daylight
26 Jun - 13:10:15 10° SSW 13:22:33 24° SSE 13:33:07 10° ESE daylight
26 Jun - 15:18:05 10° SW 15:32:25 36° S 15:42:58 10° ESE daylight
26 Jun - 17:29:16 10° WSW 17:41:50 34° SSW 17:50:24 10° SE daylight
26 Jun - 19:42:28 10° WSW 19:49:43 19° SW 19:55:12 10° S daylight
27 Jun - 11:24:32 10° SSE 11:30:30 13° SE 11:36:18 10° ESE daylight
27 Jun - 13:26:14 10° SSW 13:39:51 29° SSE 13:51:18 10° ESE daylight
27 Jun - 15:35:10 10° SW 15:49:50 38° S 16:00:32 10° ESE daylight
27 Jun - 17:46:53 10° WSW 17:59:07 32° SSW 18:07:33 10° SE daylight
27 Jun - 20:01:05 10° WSW 20:06:40 15° SW 20:11:11 10° S daylight
